User: anonymous   Login
Location: Unspecified
(0.0000°N, 0.0000°E)
Time: 18:21:31
(UTC+00:00)
Language:

Cosmos 1680 - Orbit

View from above orbital plane
View from above orbital plane
View from above satellite
View from above satellite

Ground track
Ground track

The orbit data is extracted from the following two-line orbital elements,

1 16011U 85079A   18114.83309487  .00000014  00000-0  14430-4 0  9996
2 16011  74.0551 358.7348 0015400 192.5526 167.5244 14.33183166705749
Epoch (UTC): 24 April 2018 19:59:39
Eccentricity: 0.0015400
inclination: 74.0551°
perigee height: 770 km
apogee height: 792 km
right ascension of ascending node: 358.7348°
argument of perigee: 192.5526°
revolutions per day: 14.33183166
mean anomaly at epoch: 167.5244°
orbit number at epoch: 70574

The dashed part of the orbit path shows where the satellite is in the earth's shadow,  

DLR